This is the latest recevied weather packets stored in our database for station/object PP5FMM-10. If no packets are shown the sender has not sent any weather packets the latest 10 day(s).
| Time | Temp. | Humidity | Pressure | Rain* | Wind** | Luminosity | Snow |
|---|---|---|---|---|---|---|---|
| 1777389712 | 22.78° C | 58% | 1018.7 hPa | - | - | - | - |
| 1777389707 | 22.78° C | 58% | 1018.7 hPa | - | - | - | - |
| 1777388807 | 22.78° C | 57% | 1018.8 hPa | - | - | - | - |
| 1777387912 | 22.78° C | 57% | 1019.2 hPa | - | - | - | - |
| 1777387907 | 22.78° C | 57% | 1019.2 hPa | - | - | - | - |
| 1777387012 | 22.78° C | 57% | 1019.2 hPa | - | - | - | - |
| 1777387007 | 22.78° C | 57% | 1019.2 hPa | - | - | - | - |
| 1777386112 | 22.78° C | 56% | 1019.3 hPa | - | - | - | - |
| 1777386107 | 22.78° C | 56% | 1019.3 hPa | - | - | - | - |
| 1777385213 | 22.78° C | 56% | 1019.5 hPa | - | - | - | - |
| 1777385207 | 22.78° C | 56% | 1019.5 hPa | - | - | - | - |
| 1777384312 | 22.78° C | 56% | 1019.7 hPa | - | - | - | - |
| 1777384306 | 22.78° C | 56% | 1019.7 hPa | - | - | - | - |
| 1777383406 | 22.78° C | 54% | 1019.7 hPa | - | - | - | - |
| 1777382506 | 23.33° C | 53% | 1019.6 hPa | - | - | - | - |
| 1777381606 | 23.33° C | 53% | 1019.8 hPa | - | - | - | - |
| 1777380706 | 23.33° C | 52% | 1019.7 hPa | - | - | - | - |
| 1777379806 | 23.33° C | 52% | 1019.7 hPa | - | - | - | - |
| 1777378906 | 23.33° C | 51% | 1019.3 hPa | - | - | - | - |
| 1777378005 | 22.78° C | 49% | 1019.4 hPa | - | - | - | - |
| 1777377105 | 22.22° C | 46% | 1019.5 hPa | - | - | - | - |
| 1777376205 | 22.78° C | 48% | 1019.1 hPa | - | - | - | - |
| 1777375305 | 22.78° C | 50% | 1018.9 hPa | - | - | - | - |
| 1777374404 | 22.78° C | 48% | 1018.7 hPa | - | - | - | - |
| 1777373503 | 23.33° C | 52% | 1018.7 hPa | - | - | - | - |
* Rain since midnight (hover to see other rain measurements)
** Current wind speed in m/s (hover to see current wind gust speed)